Year,Month,Day,Hour,Minute,Value (Times are PST for temperature in C)
2017,05,02,00,00,6.00
2017,05,02,00,01,6.00
2017,05,02,00,02,6.00
2017,05,02,00,03,6.00
2017,05,02,00,04,6.00
2017,05,02,00,05,6.00
2017,05,02,00,06,5.90
2017,05,02,00,07,5.90
2017,05,02,00,08,5.90
2017,05,02,00,09,5.80
2017,05,02,00,10,5.80
2017,05,02,00,11,5.80
2017,05,02,00,12,5.80
2017,05,02,00,13,5.70
2017,05,02,00,14,5.70
2017,05,02,00,15,5.70
2017,05,02,00,16,5.70
2017,05,02,00,17,5.70
2017,05,02,00,18,5.70
2017,05,02,00,19,5.70
2017,05,02,00,20,5.60
2017,05,02,00,21,5.60
2017,05,02,00,22,5.60
2017,05,02,00,23,5.60
2017,05,02,00,24,5.60
2017,05,02,00,25,5.60
2017,05,02,00,26,5.60
2017,05,02,00,27,5.60
2017,05,02,00,28,5.60
2017,05,02,00,29,5.60
2017,05,02,00,30,5.60
2017,05,02,00,31,5.60
2017,05,02,00,32,5.60
2017,05,02,00,33,5.50
2017,05,02,00,34,5.50
2017,05,02,00,35,5.50
2017,05,02,00,36,5.40
2017,05,02,00,37,5.40
2017,05,02,00,38,5.40
2017,05,02,00,39,5.40
2017,05,02,00,40,5.50
2017,05,02,00,41,5.50
2017,05,02,00,42,5.50
2017,05,02,00,43,5.60
2017,05,02,00,44,5.60
2017,05,02,00,45,5.60
2017,05,02,00,46,5.60
2017,05,02,00,47,5.50
2017,05,02,00,48,5.50
2017,05,02,00,49,5.50
2017,05,02,00,50,5.50
2017,05,02,00,51,5.50
2017,05,02,00,52,5.50
2017,05,02,00,53,5.40
2017,05,02,00,54,5.40
2017,05,02,00,55,5.40
2017,05,02,00,56,5.40
2017,05,02,00,57,5.40
2017,05,02,00,58,5.30
2017,05,02,00,59,5.30
2017,05,02,01,00,5.40
2017,05,02,01,01,5.40
2017,05,02,01,02,5.40
2017,05,02,01,03,5.50
2017,05,02,01,04,5.50
2017,05,02,01,05,5.50
2017,05,02,01,06,5.50
2017,05,02,01,07,5.50
2017,05,02,01,08,5.50
2017,05,02,01,09,5.50
2017,05,02,01,10,5.60
2017,05,02,01,11,5.60
2017,05,02,01,12,5.50
2017,05,02,01,13,5.50
2017,05,02,01,14,5.50
2017,05,02,01,15,5.50
2017,05,02,01,16,5.60
2017,05,02,01,17,5.60
2017,05,02,01,18,5.60
2017,05,02,01,19,5.70
2017,05,02,01,20,5.70
2017,05,02,01,21,5.70
2017,05,02,01,22,5.80
2017,05,02,01,23,5.90
2017,05,02,01,24,5.90
2017,05,02,01,25,6.00
2017,05,02,01,26,6.10
2017,05,02,01,27,6.10
2017,05,02,01,28,6.00
2017,05,02,01,29,6.00
2017,05,02,01,30,5.90
2017,05,02,01,31,5.80
2017,05,02,01,32,5.80
2017,05,02,01,33,5.80
2017,05,02,01,34,5.80
2017,05,02,01,35,5.80
2017,05,02,01,36,5.80
2017,05,02,01,37,5.70
2017,05,02,01,38,5.70
2017,05,02,01,39,5.70
2017,05,02,01,40,5.70
2017,05,02,01,41,5.70
2017,05,02,01,42,5.70
2017,05,02,01,43,5.70
2017,05,02,01,44,5.70
2017,05,02,01,45,5.70
2017,05,02,01,46,5.70
2017,05,02,01,47,5.70
2017,05,02,01,48,5.70
2017,05,02,01,49,5.60
2017,05,02,01,50,5.60
2017,05,02,01,51,5.60
2017,05,02,01,52,5.50
2017,05,02,01,53,5.50
2017,05,02,01,54,5.40
2017,05,02,01,55,5.40
2017,05,02,01,56,5.40
2017,05,02,01,57,5.50
2017,05,02,01,58,5.50
2017,05,02,01,59,5.50
2017,05,02,02,00,5.60
2017,05,02,02,01,5.60
2017,05,02,02,02,5.60
2017,05,02,02,03,5.60
2017,05,02,02,04,5.60
2017,05,02,02,05,5.50
2017,05,02,02,06,5.50
2017,05,02,02,07,5.50
2017,05,02,02,08,5.50
2017,05,02,02,09,5.60
2017,05,02,02,10,5.60
2017,05,02,02,11,5.70
2017,05,02,02,12,5.70
2017,05,02,02,13,5.70
2017,05,02,02,14,5.70
2017,05,02,02,15,5.70
2017,05,02,02,16,5.80
2017,05,02,02,17,5.80
2017,05,02,02,18,5.80
2017,05,02,02,19,5.80
2017,05,02,02,20,5.90
2017,05,02,02,21,5.90
2017,05,02,02,22,5.90
2017,05,02,02,23,5.90
2017,05,02,02,24,5.80
2017,05,02,02,25,5.80
2017,05,02,02,26,5.70
2017,05,02,02,27,5.70
2017,05,02,02,28,5.70
2017,05,02,02,29,5.70
2017,05,02,02,30,5.70
2017,05,02,02,31,5.70
2017,05,02,02,32,5.70
2017,05,02,02,33,5.70
2017,05,02,02,34,5.80
2017,05,02,02,35,5.80
2017,05,02,02,36,5.80
2017,05,02,02,37,5.70
2017,05,02,02,38,5.80
2017,05,02,02,39,5.80
2017,05,02,02,40,5.80
2017,05,02,02,41,5.80
2017,05,02,02,42,5.80
2017,05,02,02,43,5.70
2017,05,02,02,44,5.70
2017,05,02,02,45,5.70
2017,05,02,02,46,5.60
2017,05,02,02,47,5.60
2017,05,02,02,48,5.50
2017,05,02,02,49,5.50
2017,05,02,02,50,5.50
2017,05,02,02,51,5.50
2017,05,02,02,52,5.50
2017,05,02,02,53,5.50
2017,05,02,02,54,5.50
2017,05,02,02,55,5.50
2017,05,02,02,56,5.50
2017,05,02,02,57,5.60
2017,05,02,02,58,5.60
2017,05,02,02,59,5.60
2017,05,02,03,00,5.60
2017,05,02,03,01,5.60
2017,05,02,03,02,5.70
2017,05,02,03,03,5.70
2017,05,02,03,04,5.80
2017,05,02,03,05,5.80
2017,05,02,03,06,5.90
2017,05,02,03,07,6.00
2017,05,02,03,08,6.00
2017,05,02,03,09,6.10
2017,05,02,03,10,6.10
2017,05,02,03,11,6.10
2017,05,02,03,12,6.20
2017,05,02,03,13,6.20
2017,05,02,03,14,6.20
2017,05,02,03,15,6.30
2017,05,02,03,16,6.30
2017,05,02,03,17,6.30
2017,05,02,03,18,6.40
2017,05,02,03,19,6.40
2017,05,02,03,20,6.40
2017,05,02,03,21,6.40
2017,05,02,03,22,6.40
2017,05,02,03,23,6.50
2017,05,02,03,24,6.60
2017,05,02,03,25,6.60
2017,05,02,03,26,6.60
2017,05,02,03,27,6.60
2017,05,02,03,28,6.70
2017,05,02,03,29,6.70
2017,05,02,03,30,6.70
2017,05,02,03,31,6.70
2017,05,02,03,32,6.70
2017,05,02,03,33,6.70
2017,05,02,03,34,6.80
2017,05,02,03,35,6.80
2017,05,02,03,36,6.80
2017,05,02,03,37,6.80
2017,05,02,03,38,6.80
2017,05,02,03,39,6.80
2017,05,02,03,40,6.80
2017,05,02,03,41,6.80
2017,05,02,03,42,6.90
2017,05,02,03,43,6.90
2017,05,02,03,44,6.90
2017,05,02,03,45,7.00
2017,05,02,03,46,7.00
2017,05,02,03,47,7.00
2017,05,02,03,48,7.00
2017,05,02,03,49,7.00
2017,05,02,03,50,7.00
2017,05,02,03,51,7.00
2017,05,02,03,52,7.00
2017,05,02,03,53,7.10
2017,05,02,03,54,7.10
2017,05,02,03,55,7.10
2017,05,02,03,56,7.10
2017,05,02,03,57,7.20
2017,05,02,03,58,7.20
2017,05,02,03,59,7.20
2017,05,02,04,00,7.20
2017,05,02,04,01,7.20
2017,05,02,04,02,7.30
2017,05,02,04,03,7.30
2017,05,02,04,04,7.30
2017,05,02,04,05,7.30
2017,05,02,04,06,7.30
2017,05,02,04,07,7.30
2017,05,02,04,08,7.30
2017,05,02,04,09,7.30
2017,05,02,04,10,7.30
2017,05,02,04,11,7.30
2017,05,02,04,12,7.30
2017,05,02,04,13,7.30
2017,05,02,04,14,7.30
2017,05,02,04,15,7.30
2017,05,02,04,16,7.30
2017,05,02,04,17,7.30
2017,05,02,04,18,7.30
2017,05,02,04,19,7.30
2017,05,02,04,20,7.30
2017,05,02,04,21,7.20
2017,05,02,04,22,7.20
2017,05,02,04,23,7.20
2017,05,02,04,24,7.20
2017,05,02,04,25,7.20
2017,05,02,04,26,7.20
2017,05,02,04,27,7.20
2017,05,02,04,28,7.20
2017,05,02,04,29,7.20
2017,05,02,04,30,7.20
2017,05,02,04,31,7.20
2017,05,02,04,32,7.20
2017,05,02,04,33,7.20
2017,05,02,04,34,7.20
2017,05,02,04,35,7.20
2017,05,02,04,36,7.20
2017,05,02,04,37,7.20
2017,05,02,04,38,7.20
2017,05,02,04,39,7.20
2017,05,02,04,40,7.20
2017,05,02,04,41,7.20
2017,05,02,04,42,7.20
2017,05,02,04,43,7.20
2017,05,02,04,44,7.20
2017,05,02,04,45,7.20
2017,05,02,04,46,7.20
2017,05,02,04,47,7.20
2017,05,02,04,48,7.20
2017,05,02,04,49,7.20
2017,05,02,04,50,7.20
2017,05,02,04,51,7.20
2017,05,02,04,52,7.20
2017,05,02,04,53,7.20
2017,05,02,04,54,7.20
2017,05,02,04,55,7.20
2017,05,02,04,56,7.20
2017,05,02,04,57,7.20
2017,05,02,04,58,7.20
2017,05,02,04,59,7.20
2017,05,02,05,00,7.20
2017,05,02,05,01,7.30
2017,05,02,05,02,7.30
2017,05,02,05,03,7.30
2017,05,02,05,04,7.30
2017,05,02,05,05,7.30
2017,05,02,05,06,7.30
2017,05,02,05,07,7.30
2017,05,02,05,08,7.30
2017,05,02,05,09,7.30
2017,05,02,05,10,7.30
2017,05,02,05,11,7.30
2017,05,02,05,12,7.30
2017,05,02,05,13,7.30
2017,05,02,05,14,7.30
2017,05,02,05,15,7.30
2017,05,02,05,16,7.30
2017,05,02,05,17,7.30
2017,05,02,05,18,7.30
2017,05,02,05,19,7.30
2017,05,02,05,20,7.30
2017,05,02,05,21,7.40
2017,05,02,05,22,7.40
2017,05,02,05,23,7.40
2017,05,02,05,24,7.40
2017,05,02,05,25,7.40
2017,05,02,05,26,7.40
2017,05,02,05,27,7.40
2017,05,02,05,28,7.40
2017,05,02,05,29,7.40
2017,05,02,05,30,7.40
2017,05,02,05,31,7.40
2017,05,02,05,32,7.40
2017,05,02,05,33,7.40
2017,05,02,05,34,7.40
2017,05,02,05,35,7.40
2017,05,02,05,36,7.40
2017,05,02,05,37,7.40
2017,05,02,05,38,7.40
2017,05,02,05,39,7.40
2017,05,02,05,40,7.40
2017,05,02,05,41,7.40
2017,05,02,05,42,7.40
2017,05,02,05,43,7.40
2017,05,02,05,44,7.40
2017,05,02,05,45,7.40
2017,05,02,05,46,7.40
2017,05,02,05,47,7.40
2017,05,02,05,48,7.40
2017,05,02,05,49,7.40
2017,05,02,05,50,7.30
2017,05,02,05,51,7.30
2017,05,02,05,52,7.30
2017,05,02,05,53,7.30
2017,05,02,05,54,7.30
2017,05,02,05,55,7.30
2017,05,02,05,56,7.30
2017,05,02,05,57,7.30
2017,05,02,05,58,7.30
2017,05,02,05,59,7.30
2017,05,02,06,00,7.30
2017,05,02,06,01,7.30
2017,05,02,06,02,7.30
2017,05,02,06,03,7.30
2017,05,02,06,04,7.30
2017,05,02,06,05,7.30
2017,05,02,06,06,7.30
2017,05,02,06,07,7.30
2017,05,02,06,08,7.30
2017,05,02,06,09,7.30
2017,05,02,06,10,7.30
2017,05,02,06,11,7.30
2017,05,02,06,12,7.30
2017,05,02,06,13,7.30
2017,05,02,06,14,7.30
2017,05,02,06,15,7.30
2017,05,02,06,16,7.30
2017,05,02,06,17,7.30
2017,05,02,06,18,7.30
2017,05,02,06,19,7.30
2017,05,02,06,20,7.30
2017,05,02,06,21,7.30
2017,05,02,06,22,7.30
2017,05,02,06,23,7.30
2017,05,02,06,24,7.30
2017,05,02,06,25,7.30
2017,05,02,06,26,7.30
2017,05,02,06,27,7.30
2017,05,02,06,28,7.30
2017,05,02,06,29,7.30
2017,05,02,06,30,7.30
2017,05,02,06,31,7.30
2017,05,02,06,32,7.30
2017,05,02,06,33,7.40
2017,05,02,06,34,7.40
2017,05,02,06,35,7.40
2017,05,02,06,36,7.40
2017,05,02,06,37,7.40
2017,05,02,06,38,7.40
2017,05,02,06,39,7.50
2017,05,02,06,40,7.50
2017,05,02,06,41,7.50
2017,05,02,06,42,7.50
2017,05,02,06,43,7.50
2017,05,02,06,44,7.50
2017,05,02,06,45,7.60
2017,05,02,06,46,7.60
2017,05,02,06,47,7.60
2017,05,02,06,48,7.60
2017,05,02,06,49,7.60
2017,05,02,06,50,7.70
2017,05,02,06,51,7.70
2017,05,02,06,52,7.70
2017,05,02,06,53,7.70
2017,05,02,06,54,7.70
2017,05,02,06,55,7.70
2017,05,02,06,56,7.70
2017,05,02,06,57,7.70
2017,05,02,06,58,7.80
2017,05,02,06,59,7.80
2017,05,02,07,00,7.80
2017,05,02,07,01,7.80
2017,05,02,07,02,7.80
2017,05,02,07,03,7.80
2017,05,02,07,04,7.90
2017,05,02,07,05,7.90
2017,05,02,07,06,7.90
2017,05,02,07,07,8.00
2017,05,02,07,08,8.00
2017,05,02,07,09,8.00
2017,05,02,07,10,8.00
2017,05,02,07,11,8.00
2017,05,02,07,12,8.00
2017,05,02,07,13,8.10
2017,05,02,07,14,8.10
2017,05,02,07,15,8.10
2017,05,02,07,16,8.10
2017,05,02,07,17,8.20
2017,05,02,07,18,8.20
2017,05,02,07,19,8.20
2017,05,02,07,20,8.20
2017,05,02,07,21,8.20
2017,05,02,07,22,8.20
2017,05,02,07,23,8.30
2017,05,02,07,24,8.30
2017,05,02,07,25,8.30
2017,05,02,07,26,8.30
2017,05,02,07,27,8.30
2017,05,02,07,28,8.40
2017,05,02,07,29,8.40
2017,05,02,07,30,8.40
2017,05,02,07,31,8.50
2017,05,02,07,32,8.50
2017,05,02,07,33,8.50
2017,05,02,07,34,8.50
2017,05,02,07,35,8.50
2017,05,02,07,36,8.50
2017,05,02,07,37,8.50
2017,05,02,07,38,8.60
2017,05,02,07,39,8.60
2017,05,02,07,40,8.60
2017,05,02,07,41,8.60
2017,05,02,07,42,8.60
2017,05,02,07,43,8.70
2017,05,02,07,44,8.70
2017,05,02,07,45,8.70
2017,05,02,07,46,8.70
2017,05,02,07,47,8.70
2017,05,02,07,48,8.80
2017,05,02,07,49,8.80
2017,05,02,07,50,8.90
2017,05,02,07,51,8.90
2017,05,02,07,52,8.90
2017,05,02,07,53,8.90
2017,05,02,07,54,8.90
2017,05,02,07,55,8.90
2017,05,02,07,56,8.90
2017,05,02,07,57,8.90
2017,05,02,07,58,8.90
2017,05,02,07,59,9.00
2017,05,02,08,00,9.00
2017,05,02,08,01,9.00
2017,05,02,08,02,9.10
2017,05,02,08,03,9.20
2017,05,02,08,04,9.20
2017,05,02,08,05,9.20
2017,05,02,08,06,9.20
2017,05,02,08,07,9.30
2017,05,02,08,08,9.40
2017,05,02,08,09,9.50
2017,05,02,08,10,9.50
2017,05,02,08,11,9.50
2017,05,02,08,12,9.50
2017,05,02,08,13,9.60
2017,05,02,08,14,9.60
2017,05,02,08,15,9.60
2017,05,02,08,16,9.70
2017,05,02,08,17,9.70
2017,05,02,08,18,9.70
2017,05,02,08,19,9.70
2017,05,02,08,20,9.70
2017,05,02,08,21,9.80
2017,05,02,08,22,9.80
2017,05,02,08,23,9.80
2017,05,02,08,24,9.80
2017,05,02,08,25,9.80
2017,05,02,08,26,9.80
2017,05,02,08,27,9.90
2017,05,02,08,28,9.90
2017,05,02,08,29,9.90
2017,05,02,08,30,10.00
2017,05,02,08,31,10.10
2017,05,02,08,32,10.10
2017,05,02,08,33,10.10
2017,05,02,08,34,10.10
2017,05,02,08,35,10.10
2017,05,02,08,36,10.10
2017,05,02,08,37,10.20
2017,05,02,08,38,10.20
2017,05,02,08,39,10.30
2017,05,02,08,40,10.30
2017,05,02,08,41,10.40
2017,05,02,08,42,10.40
2017,05,02,08,43,10.40
2017,05,02,08,44,10.50
2017,05,02,08,45,10.60
2017,05,02,08,46,10.60
2017,05,02,08,47,10.60
2017,05,02,08,48,10.60
2017,05,02,08,49,10.60
2017,05,02,08,50,10.60
2017,05,02,08,51,10.60
2017,05,02,08,52,10.60
2017,05,02,08,53,10.60
2017,05,02,08,54,10.60
2017,05,02,08,55,10.60
2017,05,02,08,56,10.60
2017,05,02,08,57,10.60
2017,05,02,08,58,10.60
2017,05,02,08,59,10.60
2017,05,02,09,00,10.50
2017,05,02,09,01,10.50
2017,05,02,09,02,10.60
2017,05,02,09,03,10.60
2017,05,02,09,04,10.60
2017,05,02,09,05,10.60
2017,05,02,09,06,10.60
2017,05,02,09,07,10.60
2017,05,02,09,08,10.60
2017,05,02,09,09,10.60
2017,05,02,09,10,10.50
2017,05,02,09,11,10.40
2017,05,02,09,12,10.40
2017,05,02,09,13,10.40
2017,05,02,09,14,10.50
2017,05,02,09,15,10.60
2017,05,02,09,16,10.60
2017,05,02,09,17,10.60
2017,05,02,09,18,10.60
2017,05,02,09,19,10.60
2017,05,02,09,20,10.60
2017,05,02,09,21,10.60
2017,05,02,09,22,10.70
2017,05,02,09,23,10.80
2017,05,02,09,24,10.80
2017,05,02,09,25,10.80
2017,05,02,09,26,10.90
2017,05,02,09,27,10.90
2017,05,02,09,28,10.90
2017,05,02,09,29,10.90
2017,05,02,09,30,10.90
2017,05,02,09,31,10.90
2017,05,02,09,32,10.90
2017,05,02,09,33,10.90
2017,05,02,09,34,10.90
2017,05,02,09,35,10.90
2017,05,02,09,36,10.80
2017,05,02,09,37,10.80
2017,05,02,09,38,10.80
2017,05,02,09,39,10.80
2017,05,02,09,40,10.90
2017,05,02,09,41,10.90
2017,05,02,09,42,10.90
2017,05,02,09,43,11.10
2017,05,02,09,44,11.10
2017,05,02,09,45,11.10
2017,05,02,09,46,11.10
2017,05,02,09,47,11.10
2017,05,02,09,48,11.10
2017,05,02,09,49,11.10
2017,05,02,09,50,11.10
2017,05,02,09,51,11.20
2017,05,02,09,52,11.20
2017,05,02,09,53,11.20
2017,05,02,09,54,11.20
2017,05,02,09,55,11.20
2017,05,02,09,56,11.30
2017,05,02,09,57,11.30
2017,05,02,09,58,11.30
2017,05,02,09,59,11.40
2017,05,02,10,00,11.40
2017,05,02,10,01,11.40
2017,05,02,10,02,11.40
2017,05,02,10,03,11.40
2017,05,02,10,04,11.40
2017,05,02,10,05,11.40
2017,05,02,10,06,11.40
2017,05,02,10,07,11.40
2017,05,02,10,08,11.40
2017,05,02,10,09,11.30
2017,05,02,10,10,11.30
2017,05,02,10,11,11.30
2017,05,02,10,12,11.30
2017,05,02,10,13,11.30
2017,05,02,10,14,11.30
2017,05,02,10,15,11.30
2017,05,02,10,16,11.30
2017,05,02,10,17,11.20
2017,05,02,10,18,11.20
2017,05,02,10,19,11.10
2017,05,02,10,20,11.10
2017,05,02,10,21,11.10
2017,05,02,10,22,11.10
2017,05,02,10,23,11.10
2017,05,02,10,24,11.10
2017,05,02,10,25,11.10
2017,05,02,10,26,11.10
2017,05,02,10,27,11.10
2017,05,02,10,28,11.10
2017,05,02,10,29,11.20
2017,05,02,10,30,11.20
2017,05,02,10,31,11.30
2017,05,02,10,32,11.30
2017,05,02,10,33,11.30
2017,05,02,10,34,11.40
2017,05,02,10,35,11.40
2017,05,02,10,36,11.40
2017,05,02,10,37,11.40
2017,05,02,10,38,11.40
2017,05,02,10,39,11.30
2017,05,02,10,40,11.30
2017,05,02,10,41,11.20
2017,05,02,10,42,11.20
2017,05,02,10,43,11.10
2017,05,02,10,44,11.10
2017,05,02,10,45,11.00
2017,05,02,10,46,10.90
2017,05,02,10,47,10.90
2017,05,02,10,48,10.90
2017,05,02,10,49,10.90
2017,05,02,10,50,10.80
2017,05,02,10,51,10.80
2017,05,02,10,52,10.80
2017,05,02,10,53,10.80
2017,05,02,10,54,10.80
2017,05,02,10,55,10.90
2017,05,02,10,56,10.90
2017,05,02,10,57,10.90
2017,05,02,10,58,10.90
2017,05,02,10,59,10.90
2017,05,02,11,00,10.90
2017,05,02,11,01,10.90
2017,05,02,11,02,10.90
2017,05,02,11,03,10.90
2017,05,02,11,04,10.90
2017,05,02,11,05,10.90
2017,05,02,11,06,10.90
2017,05,02,11,07,10.90
2017,05,02,11,08,10.90
2017,05,02,11,09,10.90
2017,05,02,11,10,10.90
2017,05,02,11,11,10.90
2017,05,02,11,12,10.90
2017,05,02,11,13,10.90
2017,05,02,11,14,10.90
2017,05,02,11,15,10.90
2017,05,02,11,16,10.90
2017,05,02,11,17,10.90
2017,05,02,11,18,11.10
2017,05,02,11,19,11.10
2017,05,02,11,20,11.10
2017,05,02,11,21,11.10
2017,05,02,11,22,11.00
2017,05,02,11,23,10.90
2017,05,02,11,24,11.00
2017,05,02,11,25,11.10
2017,05,02,11,26,11.10
2017,05,02,11,27,11.10
2017,05,02,11,28,11.10
2017,05,02,11,29,11.00
2017,05,02,11,30,11.10
2017,05,02,11,31,11.10
2017,05,02,11,32,11.00
2017,05,02,11,33,10.90
2017,05,02,11,34,10.90
2017,05,02,11,35,10.90
2017,05,02,11,36,10.90
2017,05,02,11,37,10.90
2017,05,02,11,38,10.90
2017,05,02,11,39,10.90
2017,05,02,11,40,10.90
2017,05,02,11,41,10.90
2017,05,02,11,42,10.90
2017,05,02,11,43,10.90
2017,05,02,11,44,10.90
2017,05,02,11,45,10.90
2017,05,02,11,46,10.90
2017,05,02,11,47,10.90
2017,05,02,11,48,10.90
2017,05,02,11,49,11.00
2017,05,02,11,50,11.10
2017,05,02,11,51,11.10
2017,05,02,11,52,11.10
2017,05,02,11,53,11.10
2017,05,02,11,54,11.10
2017,05,02,11,55,11.10
2017,05,02,11,56,11.10
2017,05,02,11,57,11.10
2017,05,02,11,58,11.10
2017,05,02,11,59,11.10
2017,05,02,12,00,11.10
2017,05,02,12,01,11.10
2017,05,02,12,02,11.10
2017,05,02,12,03,11.10
2017,05,02,12,04,11.20
2017,05,02,12,05,11.20
2017,05,02,12,06,11.20
2017,05,02,12,07,11.30
2017,05,02,12,08,11.30
2017,05,02,12,09,11.30
2017,05,02,12,10,11.30
2017,05,02,12,11,11.30
2017,05,02,12,12,11.30
2017,05,02,12,13,11.30
2017,05,02,12,14,11.30
2017,05,02,12,15,11.30
2017,05,02,12,16,11.30
2017,05,02,12,17,11.20
2017,05,02,12,18,11.20
2017,05,02,12,19,11.20
2017,05,02,12,20,11.30
2017,05,02,12,21,11.30
2017,05,02,12,22,11.30
2017,05,02,12,23,11.30
2017,05,02,12,24,11.30
2017,05,02,12,25,11.30
2017,05,02,12,26,11.30
2017,05,02,12,27,11.30
2017,05,02,12,28,11.20
2017,05,02,12,29,11.20
2017,05,02,12,30,11.20
2017,05,02,12,31,11.20
2017,05,02,12,32,11.10
2017,05,02,12,33,11.10
2017,05,02,12,34,11.10
2017,05,02,12,35,11.10
2017,05,02,12,36,11.20
2017,05,02,12,37,11.20
2017,05,02,12,38,11.20
2017,05,02,12,39,11.20
2017,05,02,12,40,11.20
2017,05,02,12,41,11.30
2017,05,02,12,42,11.20
2017,05,02,12,43,11.20
2017,05,02,12,44,11.30
2017,05,02,12,45,11.30
2017,05,02,12,46,11.30
2017,05,02,12,47,11.20
2017,05,02,12,48,11.20
2017,05,02,12,49,11.20
2017,05,02,12,50,11.10
2017,05,02,12,51,11.10
2017,05,02,12,52,11.10
2017,05,02,12,53,11.10
2017,05,02,12,54,11.10
2017,05,02,12,55,11.10
2017,05,02,12,56,11.10
2017,05,02,12,57,11.10
2017,05,02,12,58,11.10
2017,05,02,12,59,11.10
2017,05,02,13,00,11.10
2017,05,02,13,01,11.10
2017,05,02,13,02,11.10
2017,05,02,13,03,11.10
2017,05,02,13,04,11.10
2017,05,02,13,05,11.10
2017,05,02,13,06,11.20
2017,05,02,13,07,11.20
2017,05,02,13,08,11.20
2017,05,02,13,09,11.20
2017,05,02,13,10,11.20
2017,05,02,13,11,11.20
2017,05,02,13,12,11.20
2017,05,02,13,13,11.20
2017,05,02,13,14,11.10
2017,05,02,13,15,11.10
2017,05,02,13,16,11.10
2017,05,02,13,17,11.10
2017,05,02,13,18,11.10
2017,05,02,13,19,11.10
2017,05,02,13,20,11.20
2017,05,02,13,21,11.20
2017,05,02,13,22,11.20
2017,05,02,13,23,11.20
2017,05,02,13,24,11.20
2017,05,02,13,25,11.20
2017,05,02,13,26,11.20
2017,05,02,13,27,11.30
2017,05,02,13,28,11.40
2017,05,02,13,29,11.40
2017,05,02,13,30,11.50
2017,05,02,13,31,11.60
2017,05,02,13,32,11.60
2017,05,02,13,33,11.70
2017,05,02,13,34,11.70
2017,05,02,13,35,11.80
2017,05,02,13,36,11.80
2017,05,02,13,37,11.80
2017,05,02,13,38,11.80
2017,05,02,13,39,11.80
2017,05,02,13,40,11.80
2017,05,02,13,41,11.80
2017,05,02,13,42,11.80
2017,05,02,13,43,11.90
2017,05,02,13,44,11.90
2017,05,02,13,45,11.90
2017,05,02,13,46,11.90
2017,05,02,13,47,11.90
2017,05,02,13,48,11.90
2017,05,02,13,49,11.90
2017,05,02,13,50,11.90
2017,05,02,13,51,11.90
2017,05,02,13,52,11.90
2017,05,02,13,53,12.00
2017,05,02,13,54,12.00
2017,05,02,13,55,12.10
2017,05,02,13,56,12.10
2017,05,02,13,57,12.10
2017,05,02,13,58,12.10
2017,05,02,13,59,12.20
2017,05,02,14,00,12.20
2017,05,02,14,01,12.20
2017,05,02,14,02,12.20
2017,05,02,14,03,12.20
2017,05,02,14,04,12.20
2017,05,02,14,05,12.20
2017,05,02,14,06,12.30
2017,05,02,14,07,12.30
2017,05,02,14,08,12.30
2017,05,02,14,09,12.30
2017,05,02,14,10,12.30
2017,05,02,14,11,12.30
2017,05,02,14,12,12.30
2017,05,02,14,13,12.30
2017,05,02,14,14,12.30
2017,05,02,14,15,12.40
2017,05,02,14,16,12.40
2017,05,02,14,17,12.40
2017,05,02,14,18,12.50
2017,05,02,14,19,12.50
2017,05,02,14,20,12.50
2017,05,02,14,21,12.60
2017,05,02,14,22,12.60
2017,05,02,14,23,12.70
2017,05,02,14,24,12.70
2017,05,02,14,25,12.70
2017,05,02,14,26,12.80
2017,05,02,14,27,12.80
2017,05,02,14,28,12.80
2017,05,02,14,29,12.80
2017,05,02,14,30,12.80
2017,05,02,14,31,12.80
2017,05,02,14,32,12.90
2017,05,02,14,33,12.90
2017,05,02,14,34,12.90
2017,05,02,14,35,13.00
2017,05,02,14,36,13.00
2017,05,02,14,37,13.00
2017,05,02,14,38,13.00
2017,05,02,14,39,13.00
2017,05,02,14,40,13.00
2017,05,02,14,41,13.00
2017,05,02,14,42,13.10
2017,05,02,14,43,13.10
2017,05,02,14,44,13.10
2017,05,02,14,45,13.10
2017,05,02,14,46,13.10
2017,05,02,14,47,13.10
2017,05,02,14,48,13.10
2017,05,02,14,49,13.20
2017,05,02,14,50,13.20
2017,05,02,14,51,13.20
2017,05,02,14,52,13.20
2017,05,02,14,53,13.30
2017,05,02,14,54,13.30
2017,05,02,14,55,13.30
2017,05,02,14,56,13.30
2017,05,02,14,57,13.30
2017,05,02,14,58,13.30
2017,05,02,14,59,13.30
2017,05,02,15,00,13.30
2017,05,02,15,01,13.30
2017,05,02,15,02,13.40
2017,05,02,15,03,13.40
2017,05,02,15,04,13.40
2017,05,02,15,05,13.40
2017,05,02,15,06,13.30
2017,05,02,15,07,13.30
2017,05,02,15,08,13.30
2017,05,02,15,09,13.30
2017,05,02,15,10,13.30
2017,05,02,15,11,13.30
2017,05,02,15,12,13.30
2017,05,02,15,13,13.30
2017,05,02,15,14,13.30
2017,05,02,15,15,13.30
2017,05,02,15,16,13.40
2017,05,02,15,17,13.40
2017,05,02,15,18,13.50
2017,05,02,15,19,13.50
2017,05,02,15,20,13.50
2017,05,02,15,21,13.40
2017,05,02,15,22,13.40
2017,05,02,15,23,13.40
2017,05,02,15,24,13.50
2017,05,02,15,25,13.40
2017,05,02,15,26,13.40
2017,05,02,15,27,13.40
2017,05,02,15,28,13.50
2017,05,02,15,29,13.50
2017,05,02,15,30,13.50
2017,05,02,15,31,13.50
2017,05,02,15,32,13.50
2017,05,02,15,33,13.50
2017,05,02,15,34,13.50
2017,05,02,15,35,13.40
2017,05,02,15,36,13.50
2017,05,02,15,37,13.50
2017,05,02,15,38,13.50
2017,05,02,15,39,13.50
2017,05,02,15,40,13.50
2017,05,02,15,41,13.50
2017,05,02,15,42,13.50
2017,05,02,15,43,13.50
2017,05,02,15,44,13.50
2017,05,02,15,45,13.50
2017,05,02,15,46,13.50
2017,05,02,15,47,13.50
2017,05,02,15,48,13.50
2017,05,02,15,49,13.50
2017,05,02,15,50,13.50
2017,05,02,15,51,13.50
2017,05,02,15,52,13.60
2017,05,02,15,53,13.60
2017,05,02,15,54,13.70
2017,05,02,15,55,13.70
2017,05,02,15,56,13.70
2017,05,02,15,57,13.70
2017,05,02,15,58,13.70
2017,05,02,15,59,13.60
2017,05,02,16,00,13.60
2017,05,02,16,01,13.60
2017,05,02,16,02,13.60
2017,05,02,16,03,13.60
2017,05,02,16,04,13.60
2017,05,02,16,05,13.60
2017,05,02,16,06,13.60
2017,05,02,16,07,13.60
2017,05,02,16,08,13.60
2017,05,02,16,09,13.60
2017,05,02,16,10,13.60
2017,05,02,16,11,13.60
2017,05,02,16,12,13.60
2017,05,02,16,13,13.60
2017,05,02,16,14,13.60
2017,05,02,16,15,13.50
2017,05,02,16,16,13.50
2017,05,02,16,17,13.50
2017,05,02,16,18,13.50
2017,05,02,16,19,13.40
2017,05,02,16,20,13.40
2017,05,02,16,21,13.40
2017,05,02,16,22,13.40
2017,05,02,16,23,13.40
2017,05,02,16,24,13.40
2017,05,02,16,25,13.40
2017,05,02,16,26,13.40
2017,05,02,16,27,13.50
2017,05,02,16,28,13.50
2017,05,02,16,29,13.50
2017,05,02,16,30,13.60
2017,05,02,16,31,13.60
2017,05,02,16,32,13.70
2017,05,02,16,33,13.70
2017,05,02,16,34,13.70
2017,05,02,16,35,13.70
2017,05,02,16,36,13.70
2017,05,02,16,37,13.70
2017,05,02,16,38,13.70
2017,05,02,16,39,13.70
2017,05,02,16,40,13.70
2017,05,02,16,41,13.70
2017,05,02,16,42,13.60
2017,05,02,16,43,13.60
2017,05,02,16,44,13.60
2017,05,02,16,45,13.60
2017,05,02,16,46,13.60
2017,05,02,16,47,13.60
2017,05,02,16,48,13.60
2017,05,02,16,49,13.60
2017,05,02,16,50,13.50
2017,05,02,16,51,13.50
2017,05,02,16,52,13.60
2017,05,02,16,53,13.60
2017,05,02,16,54,13.60
2017,05,02,16,55,13.60
2017,05,02,16,56,13.60
2017,05,02,16,57,13.60
2017,05,02,16,58,13.60
2017,05,02,16,59,13.60
2017,05,02,17,00,13.60
2017,05,02,17,01,13.60
2017,05,02,17,02,13.70
2017,05,02,17,03,13.70
2017,05,02,17,04,13.60
2017,05,02,17,05,13.60
2017,05,02,17,06,13.60
2017,05,02,17,07,13.60
2017,05,02,17,08,13.50
2017,05,02,17,09,13.50
2017,05,02,17,10,13.50
2017,05,02,17,11,13.50
2017,05,02,17,12,13.50
2017,05,02,17,13,13.50
2017,05,02,17,14,13.50
2017,05,02,17,15,13.50
2017,05,02,17,16,13.50
2017,05,02,17,17,13.60
2017,05,02,17,18,13.60
2017,05,02,17,19,13.60
2017,05,02,17,20,13.60
2017,05,02,17,21,13.60
2017,05,02,17,22,13.60
2017,05,02,17,23,13.60
2017,05,02,17,24,13.70
2017,05,02,17,25,13.70
2017,05,02,17,26,13.70
2017,05,02,17,27,13.70
2017,05,02,17,28,13.70
2017,05,02,17,29,13.70
2017,05,02,17,30,13.70
2017,05,02,17,31,13.70
2017,05,02,17,32,13.60
2017,05,02,17,33,13.60
2017,05,02,17,34,13.60
2017,05,02,17,35,13.60
2017,05,02,17,36,13.60
2017,05,02,17,37,13.60
2017,05,02,17,38,13.50
2017,05,02,17,39,13.50
2017,05,02,17,40,13.50
2017,05,02,17,41,13.40